DATE/TIME(UTC),Outside Temperature (),Lat. , Long.,Direction / Angle (),Direction / Angle (),Speed (ground - true North),Speed (Apparent),Barometric Pressure (),Outside Humidity ()
Jul-19-2019 00:00:00,15.250000000000057,33.32384,-119.6637633,224.09525283156756,96.28555747173485,6.784017278617711,4.043196544276458,1006,100600
Jul-19-2019 00:00:15,15.260000000000048,33.3238766,-119.663765,223.69418237497604,90.77370348257634,6.29805615550756,3.790496760259179,1007,100700
Jul-19-2019 00:00:30,15.260000000000048,33.32391,-119.66377159999999,223.09257669008866,88.26987791785463,6.084233261339092,4.6457883369330455,1007,100700
Jul-19-2019 00:00:45,15.250000000000057,33.3239466,-119.66377,220.8924187567863,84.51127478179643,6.49244060475162,3.4211663066954645,1007,100700
Jul-19-2019 00:01:00,15.270000000000039,33.323985,-119.6637683,221.09295398508206,87.66254265501594,5.598272138228942,5.053995680345572,1007,100700
Jul-19-2019 00:01:15,15.270000000000039,33.3240166,-119.66377329999999,219.79233979013512,84.70035085418961,5.598272138228942,3.3822894168466524,1007,100700
Jul-19-2019 00:01:30,15.250000000000057,33.3240283,-119.6637616,218.89279605177973,76.68467130030939,5.792656587473002,3.24622030237581,1007,100700
Jul-19-2019 00:01:45,15.220000000000027,33.324034999999995,-119.6637533,217.2942438033647,69.52269886117409,5.481641468682505,2.9935205183585314,1007,100700
Jul-19-2019 00:02:00,15.240000000000009,33.3240516,-119.6637433,214.39507736000274,67.83820294348948,5.695464362850972,3.4794816414686824,1007,100700
Jul-19-2019 00:02:15,15.260000000000048,33.32407,-119.66373,212.09178702357684,62.42375177950319,5.792656587473002,2.915766738660907,1007,100700
Jul-19-2019 00:02:30,15.260000000000048,33.3240816,-119.663705,214.39507736000274,63.20297438088111,7.095032397408207,4.704103671706264,1007,100700
Jul-19-2019 00:02:45,15.260000000000048,33.3240833,-119.6636733,223.59104997185247,72.77136955956585,6.49244060475162,5.695464362850972,1007,100700
Jul-19-2019 00:03:00,15.250000000000057,33.3241033,-119.663665,225.19533179821875,82.05901541863652,5.695464362850972,3.7516198704103667,1007,100700
Jul-19-2019 00:03:15,15.260000000000048,33.324118299999995,-119.6636533,223.396244321508,81.94442385961035,4.684665226781857,3.732181425485961,1007,100700
Jul-19-2019 00:03:30,15.240000000000009,33.324104999999996,-119.663635,226.0948755365742,80.88445193861833,4.781857451403887,3.168466522678186,1007,100700
Jul-19-2019 00:03:45,15.270000000000039,33.3241033,-119.66360159999999,231.09106751011498,88.8027286673263,4.490280777537797,2.3714902807775378,1007,100700
Jul-19-2019 00:04:00,15.300000000000011,33.32411,-119.66359829999999,225.4932698516868,74.51889083471487,4.295896328293737,2.974082073434125,1007,100700
Jul-19-2019 00:04:15,15.360000000000014,33.3241283,-119.66359159999999,208.19567401668724,74.62202323783842,5.481641468682505,2.9546436285097193,1007,100700
Jul-19-2019 00:04:30,15.32000000000005,33.3241333,-119.663585,206.29345413685292,65.40886189213478,4.898488120950325,4.52915766738661,1007,100700
Jul-19-2019 00:04:45,15.210000000000036,33.324143299999996,-119.66358,203.89276097525476,67.57464235772929,4.995680345572354,5.384449244060475,1008,100800
Jul-19-2019 00:05:00,15.200000000000045,33.324163299999995,-119.6635716,205.69184845196554,64.84736325290658,4.995680345572354,4.879049676025918,1007,100700
Jul-19-2019 00:05:15,15.210000000000036,33.3241866,-119.66356999999999,207.49093592867632,62.09716583627862,4.393088552915767,4.9373650107991365,1008,100800
Jul-19-2019 00:05:30,15.260000000000048,33.3242066,-119.66355829999999,208.69414729845107,52.63190306071743,4.295896328293737,3.7127429805615555,1007,100700
Jul-19-2019 00:05:45,15.28000000000003,33.3242283,-119.66355159999999,215.8962267832455,58.115109160119395,5.695464362850972,4.237580993520519,1007,100700
Jul-19-2019 00:06:00,15.250000000000057,33.3242316,-119.6635316,218.09065513859656,67.3683775514822,8.086393088552915,5.695464362850972,1007,100700
Jul-19-2019 00:06:15,15.220000000000027,33.3242316,-119.66350999999999,229.99098854346374,85.85199602240257,6.29805615550756,4.198704103671707,1007,100700
Jul-19-2019 00:06:30,15.28000000000003,33.324235,-119.663495,224.7942613416272,78.90201796746567,6.084233261339092,3.790496760259179,1007,100700
Jul-19-2019 00:06:45,15.29000000000002,33.3242433,-119.6634816,236.4940595181986,97.83254351858807,7.3866090712742976,5.94816414686825,1007,100700
Jul-19-2019 00:07:00,15.28000000000003,33.3242483,-119.66346329999999,234.99291009495582,96.03918561982859,6.49244060475162,6.04535637149028,1007,100700
Jul-19-2019 00:07:15,15.300000000000011,33.324259999999995,-119.6634433,235.49138337671965,84.27636208579278,6.084233261339092,3.809935205183585,1007,100700
Jul-19-2019 00:07:30,15.300000000000011,33.32427,-119.66342329999999,231.4921379667065,89.67362451592516,5.190064794816414,4.781857451403887,1007,100700
Jul-19-2019 00:07:45,15.270000000000039,33.32428,-119.66340659999999,239.39322596156057,105.42996388202279,4.898488120950325,3.187904967602592,1007,100700
Jul-19-2019 00:08:00,15.330000000000041,33.3242933,-119.6633933,228.39243629504878,82.45435629727677,4.898488120950325,2.2742980561555073,1007,100700
Jul-19-2019 00:08:15,15.350000000000023,33.324304999999995,-119.66338329999999,223.29311191838445,73.51048511528462,4.898488120950325,2.488120950323974,1007,100700
Jul-19-2019 00:08:30,15.330000000000041,33.3243066,-119.6633566,230.59259422835115,73.22973579567052,5.695464362850972,3.285097192224622,1007,100700
Jul-19-2019 00:08:45,15.300000000000011,33.32431,-119.66333499999999,236.09298906160706,80.76986037959216,5.889848812095033,2.7408207343412525,1007,100700
Jul-19-2019 00:09:00,15.300000000000011,33.324304999999995,-119.66332,246.0911025866399,100.01551271803652,7.3866090712742976,3.9460043196544277,1007,100700
Jul-19-2019 00:09:15,15.250000000000057,33.3243083,-119.6633066,248.29126051994223,117.7542860552868,7.580993520518358,4.490280777537797,1007,100700
Jul-19-2019 00:09:30,15.230000000000018,33.32431,-119.6632983,254.19272580978975,102.71987351105399,7.989200863930886,5.578833693304536,1007,100700
Jul-19-2019 00:09:45,15.250000000000057,33.3243116,-119.6632716,242.8939980898099,83.85810289534729,7.4838012958963285,3.8876889848812097,1007,100700
Jul-19-2019 00:10:00,15.230000000000018,33.32431,-119.66324159999999,242.39552480804608,94.53230661863454,6.68682505399568,5.3261339092872575,1007,100700
Jul-19-2019 00:10:15,15.200000000000045,33.32431,-119.663215,242.99140091498217,102.4448537693912,5.598272138228942,4.762419006479482,1007,100700
Jul-19-2019 00:10:30,15.210000000000036,33.324291599999995,-119.66319329999999,254.19272580978975,133.6252169804106,5.190064794816414,3.285097192224622,1007,100700
Jul-19-2019 00:10:45,15.240000000000009,33.324275,-119.6631633,249.69500711801277,124.96782469598388,4.684665226781857,3.4794816414686824,1007,100700
Jul-19-2019 00:11:00,15.240000000000009,33.3242666,-119.66315159999999,247.6953844130062,104.90284271050243,3.5961123110151187,3.537796976241901,1007,100700
Jul-19-2019 00:11:15,15.180000000000007,33.3242616,-119.6631433,244.4925503382249,82.6147844799134,2.3909287257019436,2.079913606911447,1007,100700
Jul-19-2019 00:11:30,15.190000000000055,33.3242516,-119.66311999999999,254.39326103808554,89.37568646245713,2.896328293736501,3.4406047516198703,1007,100700
Jul-19-2019 00:11:45,15.180000000000007,33.3242483,-119.66309659999999,236.69459474649437,72.74845124776063,1.6911447084233262,1.7494600431965441,1007,100700
Jul-19-2019 00:12:00,15.28000000000003,33.324239999999996,-119.6630733,254.69119909155353,100.37074655101762,1.7883369330453565,1.4578833693304536,1007,100700
Jul-19-2019 00:12:15,15.32000000000005,33.324239999999996,-119.66306499999999,262.59228708640757,,1.593952483801296,0,1007,100700
Jul-19-2019 00:12:30,15.28000000000003,33.3242433,-119.66305659999999,252.69157638654698,69.12162840458252,1.4967602591792657,0.7386609071274298,1007,100700
Jul-19-2019 00:12:45,15.28000000000003,33.324246599999995,-119.66305659999999,245.89056735834407,70.0841975004023,0.8941684665226782,1.1663066954643628,1007,100700
Jul-19-2019 00:13:00,15.29000000000002,33.32425,-119.6630366,236.19039188677925,23.027173786307788,1.593952483801296,0.6414686825053996,1007,100700
Jul-19-2019 00:13:15,15.29000000000002,33.324255,-119.66301999999999,222.39356818002906,52.5459593914478,1.2829373650107991,1.3606911447084236,1007,100700
Jul-19-2019 00:13:30,15.240000000000009,33.3242633,-119.66301659999999,213.19186599022802,36.69221720017793,1.0885529157667388,1.3801295896328294,1007,100700
Jul-19-2019 00:13:45,15.28000000000003,33.32427,-119.66301659999999,201.49206781365663,37.1620425921852,1.0885529157667388,1.4190064794816413,1007,100700
Jul-19-2019 00:14:00,15.270000000000039,33.324278299999996,-119.6630266,214.6930154134708,73.24692452952443,0.6997840172786177,1.0302375809935207,1007,100700
Jul-19-2019 00:14:15,15.32000000000005,33.3242866,-119.6630366,183.79340152206547,72.49062023995177,1.0885529157667388,1.5356371490280778,1007,100700
Jul-19-2019 00:14:30,15.380000000000052,33.3243,-119.66302329999999,209.4962882116342,66.65790988551997,1.4967602591792657,1.3606911447084236,1007,100700
Jul-19-2019 00:14:45,15.310000000000002,33.3243116,-119.663015,205.5944456267933,69.76907071308035,1.982721382289417,2.3714902807775378,1007,100700
Jul-19-2019 00:15:00,15.330000000000041,33.324323299999996,-119.66301159999999,178.69407714540117,94.02810375891941,2.0993520518358535,1.0107991360691144,1007,100700
Jul-19-2019 00:15:15,15.340000000000032,33.324335,-119.6629983,203.39428769349092,90.58462741018316,1.2829373650107991,1.2829373650107991,1007,100700
Jul-19-2019 00:15:30,15.32000000000005,33.324336599999995,-119.66297499999999,223.09257669008866,,1.3995680345572354,0,1007,100700
Jul-19-2019 00:15:45,15.380000000000052,33.3243483,-119.66297499999999,213.09446316505577,326.0301741632924,1.8855291576673865,0.3693304535637149,1007,100700
Jul-19-2019 00:16:00,15.310000000000002,33.32436,-119.66297999999999,211.19224328522145,47.005457512532736,2.0993520518358535,1.7688984881209504,1007,100700
Jul-19-2019 00:16:15,15.240000000000009,33.32437,-119.66297829999999,218.89279605177973,58.109379582168096,2.5853131749460045,1.632829373650108,1007,100700
Jul-19-2019 00:16:30,15.250000000000057,33.3243766,-119.66297329999999,209.89162909027448,65.74117741331065,2.488120950323974,2.546436285097192,1007,100700
Jul-19-2019 00:16:45,15.210000000000036,33.3243766,-119.66296659999999,192.59403325527492,51.29118182011129,1.3995680345572354,1.9244060475161988,1007,100700
Jul-19-2019 00:17:00,15.210000000000036,33.3243716,-119.6629483,196.8912167187561,59.19226981496536,1.6911447084233262,2.3714902807775378,1007,100700
Jul-19-2019 00:17:15,15.240000000000009,33.324381599999995,-119.6629366,216.2915676618858,54.76330605860409,2.0993520518358535,1.593952483801296,1007,100700
Jul-19-2019 00:17:30,15.270000000000039,33.3243966,-119.6629316,211.89125179528105,51.26253393035476,1.982721382289417,1.632829373650108,1007,100700
Jul-19-2019 00:17:45,15.340000000000032,33.3244083,-119.66292829999999,207.1929978752083,65.1453013063746,1.6911447084233262,2.0993520518358535,1007,100700
Jul-19-2019 00:18:00,15.340000000000032,33.3244166,-119.6629316,206.59139219032096,70.078467922451,1.593952483801296,1.5161987041036717,1007,100700
Jul-19-2019 00:18:15,15.340000000000032,33.3244283,-119.66292999999999,208.69414729845107,79.90469410894461,1.4967602591792657,1.263498920086393,1007,100700
Jul-19-2019 00:18:30,15.390000000000043,33.32443,-119.66292159999999,196.99434912187962,79.98490820026294,2.0993520518358535,1.8272138228941683,1007,100700
Jul-19-2019 00:18:45,15.340000000000032,33.32443,-119.6629033,195.6937349269327,79.36038420357033,2.488120950323974,1.4967602591792657,1007,100700
Jul-19-2019 00:19:00,15.410000000000025,33.324433299999995,-119.66288329999999,200.9935945318928,67.75798885217117,2.5853131749460045,1.67170626349892,1007,100700
Jul-19-2019 00:19:15,15.380000000000052,33.3244366,-119.6628666,209.89162909027448,87.9719398643866,3.5961123110151187,3.0129589632829377,1007,100700
Jul-19-2019 00:19:30,15.360000000000014,33.324445,-119.66284999999999,213.7934716751154,86.5739228442674,4.198704103671707,2.1187904967602593,1007,100700
Jul-19-2019 00:19:45,15.360000000000014,33.324451599999996,-119.66282659999999,216.7957705216009,85.09569173282988,3.9848812095032398,1.57451403887689,1007,100700
Jul-19-2019 00:20:00,15.380000000000052,33.3244633,-119.6628166,212.49285748016842,68.84660866291972,4.08207343412527,1.7494600431965441,1007,100700
Jul-19-2019 00:20:15,15.380000000000052,33.3244683,-119.66279829999999,216.7957705216009,81.53762382506746,3.8876889848812097,2.041036717062635,1007,100700
Jul-19-2019 00:20:30,15.410000000000025,33.3244666,-119.66279499999999,214.6930154134708,75.25800639043364,4.198704103671707,2.1187904967602593,1008,100800
Jul-19-2019 00:20:45,15.350000000000023,33.324455,-119.66278829999999,207.1929978752083,52.213643870271916,3.3822894168466524,2.5853131749460045,1007,100700
Jul-19-2019 00:21:00,15.29000000000002,33.3244416,-119.66274999999999,225.89434030827837,52.379801630859866,3.285097192224622,1.963282937365011,1007,100700
Jul-19-2019 00:21:15,15.32000000000005,33.324413299999996,-119.6627216,237.79467371314558,41.642572550108234,2.9935205183585314,1.0107991360691144,1007,100700
Jul-19-2019 00:21:30,15.310000000000002,33.3243983,-119.6627166,235.795051008139,50.51195921873338,2.5853131749460045,1.6911447084233262,1007,100700
Jul-19-2019 00:21:45,15.28000000000003,33.32439,-119.6626933,236.59146234337086,70.61704824987397,2.488120950323974,1.4967602591792657,1007,100700
Jul-19-2019 00:22:00,15.260000000000048,33.3243866,-119.66265829999999,246.59530544635504,41.87175566816057,2.488120950323974,1.4967602591792657,1008,100800
Jul-19-2019 00:22:15,15.28000000000003,33.3243866,-119.6626416,246.49217304323147,62.538343338529366,1.6911447084233262,2.138228941684665,1007,100700
Jul-19-2019 00:22:30,15.250000000000057,33.3243916,-119.6626216,242.49292763321833,69.33935236673224,2.0993520518358535,1.3606911447084236,1007,100700
Jul-19-2019 00:22:45,15.200000000000045,33.3243916,-119.6625883,266.6946648995443,77.44670516783339,2.0993520518358535,0.816414686825054,1007,100700
Jul-19-2019 00:23:00,15.28000000000003,33.324394999999996,-119.66257499999999,247.1911815532911,79.76718423811322,2.0993520518358535,0.816414686825054,1007,100700
Jul-19-2019 00:23:15,15.240000000000009,33.324388299999995,-119.66257159999999,261.4922081197564,39.03561458226299,2.0993520518358535,0.6997840172786177,1007,100700
Jul-19-2019 00:23:30,15.240000000000009,33.3243933,-119.66256329999999,239.1926907332648,37.36830739843229,1.4967602591792657,1.107991360691145,1007,100700
Jul-19-2019 00:23:45,15.340000000000032,33.3244166,-119.6625416,192.9951037118665,52.047486109683994,1.1857451403887689,1.57451403887689,1007,100700
Jul-19-2019 00:24:00,15.410000000000025,33.3244116,-119.66252329999999,182.19484927365048,14.507291372712446,1.6911447084233262,1.0691144708423326,1007,100700
Jul-19-2019 00:24:15,15.450000000000045,33.32441,-119.6625066,194.1925855036899,48.79308583334091,1.8855291576673865,1.8855291576673865,1007,100700
Jul-19-2019 00:24:30,15.430000000000007,33.3244166,-119.6624933,190.99548100685996,78.52959540063063,2.1965442764578835,0.8552915766738661,1007,100700
Jul-19-2019 00:24:45,15.420000000000016,33.32443,-119.6624866,223.59104997185247,45.90537854588156,1.7883369330453565,1.1857451403887689,1007,100700
Jul-19-2019 00:25:00,15.380000000000052,33.324426599999995,-119.6624683,190.99548100685996,51.03335081230243,0.9913606911447085,0.388768898488121,1007,100700
Jul-19-2019 00:25:15,15.380000000000052,33.3244383,-119.6624616,184.0913395755335,22.098982158195852,0.796976241900648,1.0496760259179267,1007,100700
Jul-19-2019 00:25:30,15.28000000000003,33.324458299999996,-119.6624583,185.49508617360402,31.604351979416208,0.8941684665226782,0.5637149028077754,1007,100700
Jul-19-2019 00:25:45,15.300000000000011,33.3244766,-119.6624616,176.59132203727103,28.424436216440142,0.8941684665226782,0.5442764578833694,1007,100700
Jul-19-2019 00:26:00,15.300000000000011,33.3244866,-119.6624583,178.59667432022894,330.0523378851108,0.796976241900648,0.388768898488121,1007,100700
Jul-19-2019 00:26:15,15.240000000000009,33.32451,-119.66244499999999,171.4919976606067,40.33622877720996,1.3995680345572354,0.5248380129589634,1007,100700
Jul-19-2019 00:26:30,15.340000000000032,33.32452,-119.66243159999999,172.5920766272579,58.223971141194255,1.982721382289417,0.6803455723542118,1008,100800
Jul-19-2019 00:26:45,15.410000000000025,33.3245283,-119.6624233,167.7964198820129,68.84087908496842,1.2829373650107991,0.42764578833693306,1008,100800
Jul-19-2019 00:27:00,15.390000000000043,33.3245316,-119.6624183,178.89461237369693,43.848460061361905,1.4967602591792657,0.4470842332613391,1008,100800
Jul-19-2019 00:27:15,15.410000000000025,33.324523299999996,-119.6624016,176.29338398380298,19.400350943129673,1.593952483801296,0.2915766738660907,1008,100800
Jul-19-2019 00:27:30,15.360000000000014,33.3245366,-119.662415,162.296025048757,39.42522588295195,1.0885529157667388,0.816414686825054,1008,100800
Jul-19-2019 00:27:45,15.300000000000011,33.324545,-119.66241,202.59214678030781,46.627305367746395,0.9913606911447085,1.8272138228941683,1008,100800
Jul-19-2019 00:28:00,15.380000000000052,33.3245566,-119.6623966,208.89468252674686,83.01012535855367,1.8855291576673865,1.4190064794816413,1008,100800
Jul-19-2019 00:28:15,15.470000000000027,33.3245783,-119.66238659999999,196.8912167187561,49.38323236232565,2.488120950323974,1.9438444924406049,1007,100700
Jul-19-2019 00:28:30,15.360000000000014,33.324568299999996,-119.66237659999999,196.1922082086965,46.59865747798985,2.3909287257019436,2.3714902807775378,1007,100700
Jul-19-2019 00:28:45,15.32000000000005,33.3245916,-119.6623616,201.49206781365663,40.82897248102246,2.0993520518358535,2.546436285097192,1007,100700
Jul-19-2019 00:29:00,15.310000000000002,33.324586599999996,-119.66234999999999,183.69599869689327,46.83357017399349,2.2937365010799136,2.1576673866090714,1008,100800
Jul-19-2019 00:29:15,15.340000000000032,33.3245833,-119.66234999999999,188.69219067043406,36.64638057656746,2.799136069114471,1.9244060475161988,1008,100800
Jul-19-2019 00:29:30,15.370000000000005,33.3245833,-119.66234999999999,184.19447197865708,30.320926518323166,2.3909287257019436,1.8272138228941683,1008,100800
Jul-19-2019 00:29:45,15.370000000000005,33.324555,-119.6623266,181.79377881705892,34.16547332365099,2.5853131749460045,2.0604751619870414,1008,100800
Jul-19-2019 00:30:00,15.330000000000041,33.324565,-119.66230999999999,185.8961566301956,51.56047198382278,2.0993520518358535,1.4578833693304536,1008,100800
Jul-19-2019 00:30:15,15.32000000000005,33.3245733,-119.66229,211.59331374181303,60.41839949654531,2.2937365010799136,2.546436285097192,1008,100800
Jul-19-2019 00:30:30,15.240000000000009,33.3245733,-119.6622666,214.59561258829854,68.53721145354909,2.0993520518358535,1.982721382289417,1008,100800
Jul-19-2019 00:30:45,15.200000000000045,33.324568299999996,-119.6622433,230.29465617488307,48.535254825532036,1.2829373650107991,1.263498920086393,1008,100800
Jul-19-2019 00:31:00,15.190000000000055,33.3245666,-119.66222499999999,234.5918396383643,57.736957015333054,1.1857451403887689,1.4578833693304536,1008,100800
Jul-19-2019 00:31:15,15.210000000000036,33.324574999999996,-119.66221499999999,204.6949018884379,55.869114603206576,1.2829373650107991,1.4190064794816413,1008,100800
Jul-19-2019 00:31:30,15.330000000000041,33.324568299999996,-119.6621966,230.39205900005535,69.20757207385213,1.2829373650107991,1.7688984881209504,1008,100800
Jul-19-2019 00:31:45,15.450000000000045,33.3245716,-119.6621883,202.1910763237162,81.27406323930728,0.796976241900648,1.2246220302375812,1008,100800
Jul-19-2019 00:32:00,15.520000000000039,33.3245783,-119.66216999999999,200.79305930359703,93.47806427559381,1.3995680345572354,1.3023758099352054,1008,100800
Jul-19-2019 00:32:15,15.410000000000025,33.32459,-119.66216329999999,193.09250653703876,75.25227681248234,1.593952483801296,0.9719222462203024,1008,100800
Jul-19-2019 00:32:30,15.340000000000032,33.324594999999995,-119.6621466,167.39534942542133,65.03643932529975,0.9913606911447085,0.6220302375809935,1008,100800
Jul-19-2019 00:32:45,15.360000000000014,33.324605,-119.662145,165.49312954558698,323.40602746159317,0.6997840172786177,0.9330453563714902,1008,100800
Jul-19-2019 00:33:00,15.32000000000005,33.3246116,-119.6621416,190.99548100685996,9.465262775561202,1.4967602591792657,0.3693304535637149,1008,100800
Jul-19-2019 00:33:15,15.340000000000032,33.324613299999996,-119.66212329999999,179.09514760199275,339.47749361501286,1.0885529157667388,0.9524838012958963,1008,100800
Jul-19-2019 00:33:30,15.390000000000043,33.3246033,-119.662095,216.09103243359,57.989058445190615,1.8855291576673865,1.0302375809935207,1008,100800
Jul-19-2019 00:33:45,15.430000000000007,33.3246083,-119.66207999999999,218.1937875417201,14.661989977397768,3.0907127429805614,0.34989200863930886,1008,100800
Jul-19-2019 00:34:00,15.370000000000005,33.3246266,-119.66206659999999,222.2961653548568,59.89700790297627,2.6825053995680346,2.9935205183585314,1008,100800
Jul-19-2019 00:34:15,15.300000000000011,33.3246233,-119.6620466,223.69418237497604,54.67736238933446,1.8855291576673865,2.721382289416847,1008,100800
Jul-19-2019 00:34:30,15.310000000000002,33.3246216,-119.66203159999999,218.5948579983117,64.92184776627359,1.982721382289417,2.8185745140388767,1008,100800
Jul-19-2019 00:34:45,15.350000000000023,33.324625,-119.6620116,228.79350675164036,66.41726761156504,2.5853131749460045,2.4686825053995682,1008,100800
Jul-19-2019 00:35:00,15.450000000000045,33.3246416,-119.6620033,235.795051008139,82.1907957115166,2.799136069114471,2.2354211663066956,1008,100800
Jul-19-2019 00:35:15,15.470000000000027,33.3246666,-119.6620016,237.79467371314558,73.17816959410875,2.3909287257019436,1.7688984881209504,1008,100800
Jul-19-2019 00:35:30,15.440000000000055,33.3246766,-119.66198829999999,257.4929627097433,102.58809321817391,2.488120950323974,1.1468682505399568,1008,100800
Jul-19-2019 00:35:45,15.310000000000002,33.3246766,-119.6619716,238.89475267979674,92.32641910738086,1.3995680345572354,1.982721382289417,1008,100800
Jul-19-2019 00:36:00,15.29000000000002,33.3246733,-119.66194329999999,233.0906902151215,321.11992585902124,1.0885529157667388,0.42764578833693306,1008,100800
Jul-19-2019 00:36:15,15.370000000000005,33.3246666,-119.6619283,257.0918922531517,269.9719834876926,1.593952483801296,1.244060475161987,1008,100800
Jul-19-2019 00:36:30,15.410000000000025,33.3246633,-119.66190999999999,267.19313818130814,138.70162304526968,1.6911447084233262,0.4665226781857451,1008,100800
Jul-19-2019 00:36:45,15.390000000000043,33.3246666,-119.66189,274.79055854474285,147.5996576036514,2.0993520518358535,0.5053995680345572,1008,100800
Jul-19-2019 00:37:00,15.310000000000002,33.324651599999996,-119.66185499999999,266.99260295301235,188.50884417599218,2.488120950323974,0.34989200863930886,1008,100800
Jul-19-2019 00:37:15,15.310000000000002,33.3246016,-119.6617916,274.1946824378068,110.79284884444729,2.1965442764578835,1.3606911447084236,1008,100800
Jul-19-2019 00:37:30,15.300000000000011,33.324549999999995,-119.6617483,277.19125170634095,99.20191264895072,1.982721382289417,1.263498920086393,1008,100800
Jul-19-2019 00:37:45,15.360000000000014,33.324505,-119.6617083,280.79515623771385,96.325664517394,1.593952483801296,2.0993520518358535,1008,100800
Jul-19-2019 00:38:00,15.360000000000014,33.32447,-119.661665,281.7921028012415,114.52280409074896,0.9913606911447085,0.6025917926565875,1008,100800
Jul-19-2019 00:38:15,15.300000000000011,33.3244283,-119.66163999999999,258.3925064480987,,1.4967602591792657,0,1008,100800